Regional Weather Roundup
Issued by NWS Mobile, AL

Home | Current Version | Previous Version | Text Only | Print | Product List | Glossary Off
Versions: 1 2 3 4 5 6 7 8 9 10 11 12 13 14 15 16 17 18 19 20 21 22 23 24 25 26 27 28

000
ASUS44 KMOB 261712
RWRMOB
REGIONAL WEATHER ROUNDUP
NATIONAL WEATHER SERVICE MOBILE AL
1200 PM CDT SUN JUN 26 2016

NOTE: "FAIR" INDICATES FEW OR NO CLOUDS BELOW 12,000 FEET WITH NO
      SIGNIFICANT WEATHER AND/OR OBSTRUCTIONS TO VISIBILITY.

  * THESE STATIONS ARE PART OF THE UNIVERSITY OF SOUTH ALABAMA
    MESONET AND ARE NOT UNDER NWS OR FAA QUALITY CONTROL.

ALZ061>064-261800-
COASTAL ALABAMA

CITY           SKY/WX    TMP DP  RH WIND       PRES   REMARKS
MOBILE REG APT PTSUNNY   94  70  45 VRB3      30.11F HX 100
BROOKLEY FIELD SUNNY     91  79  67 SE8       30.12S HX 107
USA CAMPUS*    NOT AVBL
DOG RIVER*     NOT AVBL


CITY           SKY/WX    TMP DP  RH WIND       PRES   REMARKS
MOUNT VERNON*  NOT AVBL
SARALAND*      NOT AVBL
BAY MINETTE*   NOT AVBL
LOXLEY*        NOT AVBL
ROBERTSDALE*   NOT AVBL
FAIRHOPE*      NOT AVBL
ELBERTA*       NOT AVBL
FOLEY*         NOT AVBL
GRAND BAY*     NOT AVBL
DAUPHIN ISLND* NOT AVBL
BON SCOUR NWR* NOT AVBL
GULF SHORES    PTSUNNY   90  80  72 S8        30.11S HX 106

$$

ALZ051>060-261800-
INTERIOR SOUTHWEST AND SOUTH CENTRAL ALABAMA

CITY           SKY/WX    TMP DP  RH WIND       PRES   REMARKS
GREENVILLE     SUNNY     97  65  34 NW3       30.12  HX  99
EVERGREEN      SUNNY     94  69  44 W3        30.11F HX  99
CASTLEBERRY*   NOT AVBL
ATMORE*        NOT AVBL
DIXIE*         NOT AVBL
ANDALUSIA/OPP  SUNNY     99  71  40 N6        30.11F HX 107
ANDALUSIA*     NOT AVBL
FLORALA APT    SUNNY     93  70  46 CALM      30.12F HX  99
FLORALA*       NOT AVBL

$$

FLZ001>006-261800-
WESTERN FLORIDA PANHANDLE

CITY           SKY/WX    TMP DP  RH WIND       PRES   REMARKS
PENSACOLA      MOSUNNY   92  75  57 VRB5      30.11F HX 103
NAS PENSACOLA  MOSUNNY   92  77  61 S13       30.11  HX 105
MILTON         MOSUNNY   92  73  53 CALM      30.11  HX 100
WHTNG S FIELD  SUNNY     96  73  47 W5        30.11  HX 105


CITY           SKY/WX    TMP DP  RH WIND       PRES   REMARKS
WALNUT HILL*   NOT AVBL
JAY*           NOT AVBL
DUKE FIELD     SUNNY     93  69  46 S3        30.10F HX  98
CRESTVIEW      PTSUNNY   95  71  45 CALM      30.12F HX 102
VALPARAISO     MOSUNNY   90  77  66 S12       30.11S HX 102
DESTIN         SUNNY     90  81  74 VRB6      30.11F HX 109

$$

MSZ076-079-261800-
INTERIOR SOUTHEAST MISSISSIPPI

CITY           SKY/WX    TMP DP  RH WIND       PRES   REMARKS
LEAKESVILLE*   NOT AVBL
AGRICOLA*      NOT AVBL

$$

MARINE OBSERVATIONS

STATION/POSITION TIME  TEMP    WIND        PRES    WAVE
                       AIR SEA DIR/SP/G            HT/PER
                 (UTC) (F)     (DEG/KT/KT) (MB)    (FT/S)
PASCAGOULA       1600   90     250/  4/  8 1019.5F
PETIT BOIS ISLND 1600   86     270/  5/  6 1020.5F
GRAND BAY        1500   88     310/  5     1021.0
KATRINA CUT      1600   85     260/  5     1020.3F
CEDAR POINT      1600   85     240/  8     1019.6F
E DAUPHIN ISLAND 1600   87     190/  5/  8 1019.6F
MIDDLE BAY LIGHT 1600   87     130/  2     1020.0R
USCG MOBILE BAY  1600   87 86  130/  6/  8 1020.2F
STATE DOCKS      1600   95 86              1019.5F
MEAHER PARK      1600   88     270/  2     1019.3F
WEEKS BAY        1500   90                   N/A
FORT MORGAN      1600   86     260/  6/  7 1019.6S
12 S ORANGE BCH  1650   85 87              1019.4F   1/ 6
PENSACOLA BAY    1600      86  190/  9/ 10 1020.1F
64 S DAUPHIN ISL 1600   84 86  330/  2/  4 1020.0F

$$

SELECTED LOCATIONS ACROSS THE REGION

CITY           SKY/WX    TMP DP  RH WIND       PRES   REMARKS
NEW ORLEANS    MOSUNNY   94  75  54 VRB3      30.12S HX 105
GULFPORT       MOSUNNY   93  72  50 E12       30.10S HX 101
PASCAGOULA AP  MOSUNNY   95  74  50 VRB6      30.09F HX 105
PASCAGOULA*    NOT AVBL
HATTIESBURG    SUNNY     94  72  48 N5        30.11F HX 102
LAUREL         MOSUNNY   97  72  44 CALM      30.14S HX 105
MERIDIAN       MOSUNNY   96  74  48 VRB3      30.12F HX 107
JACKSON        MOSUNNY   94  71  47 NW8       30.13F HX 101
MONTGOMERY     MOSUNNY   95  71  45 VRB3      30.10F HX 102
TROY           PTSUNNY   91  74  57 NW3       30.12F HX 100
KINSTON*       NOT AVBL
GENEVA*        NOT AVBL
ASHFORD*       NOT AVBL
DOTHAN         SUNNY     94  69  44 VRB6      30.14F HX  99
PANAMA CITY    MOSUNNY   93  74  53 SE9       30.10F HX 103

$$





USA.gov is the U.S. government's official web portal to all federal, state and local government web resources and services.